Year,Month,Day,Hour,Minute,Value (Times are PST for temperature in C)
2015,06,20,00,00,13.80
2015,06,20,00,01,13.80
2015,06,20,00,02,13.80
2015,06,20,00,03,13.80
2015,06,20,00,04,13.70
2015,06,20,00,05,13.70
2015,06,20,00,06,13.70
2015,06,20,00,07,13.70
2015,06,20,00,08,13.70
2015,06,20,00,09,13.60
2015,06,20,00,10,13.60
2015,06,20,00,11,13.60
2015,06,20,00,12,13.60
2015,06,20,00,13,13.60
2015,06,20,00,14,13.60
2015,06,20,00,15,13.60
2015,06,20,00,16,13.50
2015,06,20,00,17,13.50
2015,06,20,00,18,13.50
2015,06,20,00,19,13.50
2015,06,20,00,20,13.50
2015,06,20,00,21,13.50
2015,06,20,00,22,13.50
2015,06,20,00,23,13.50
2015,06,20,00,24,13.50
2015,06,20,00,25,13.50
2015,06,20,00,26,13.50
2015,06,20,00,27,13.60
2015,06,20,00,28,13.60
2015,06,20,00,29,13.60
2015,06,20,00,30,13.60
2015,06,20,00,31,13.70
2015,06,20,00,32,13.70
2015,06,20,00,33,13.70
2015,06,20,00,34,13.70
2015,06,20,00,35,13.70
2015,06,20,00,36,13.70
2015,06,20,00,37,13.70
2015,06,20,00,38,13.70
2015,06,20,00,39,13.70
2015,06,20,00,40,13.80
2015,06,20,00,41,13.80
2015,06,20,00,42,13.80
2015,06,20,00,43,13.80
2015,06,20,00,44,13.80
2015,06,20,00,45,13.80
2015,06,20,00,46,13.80
2015,06,20,00,47,13.80
2015,06,20,00,48,13.80
2015,06,20,00,49,13.90
2015,06,20,00,50,13.80
2015,06,20,00,51,13.80
2015,06,20,00,52,13.80
2015,06,20,00,53,13.80
2015,06,20,00,54,13.80
2015,06,20,00,55,13.80
2015,06,20,00,56,13.70
2015,06,20,00,57,13.70
2015,06,20,00,58,13.70
2015,06,20,00,59,13.60
2015,06,20,01,00,13.60
2015,06,20,01,01,13.60
2015,06,20,01,02,13.50
2015,06,20,01,03,13.50
2015,06,20,01,04,13.40
2015,06,20,01,05,13.40
2015,06,20,01,06,13.40
2015,06,20,01,07,13.30
2015,06,20,01,08,13.30
2015,06,20,01,09,13.30
2015,06,20,01,10,13.20
2015,06,20,01,11,13.20
2015,06,20,01,12,13.20
2015,06,20,01,13,13.10
2015,06,20,01,14,13.10
2015,06,20,01,15,13.10
2015,06,20,01,16,13.00
2015,06,20,01,17,13.00
2015,06,20,01,18,12.90
2015,06,20,01,19,12.90
2015,06,20,01,20,12.90
2015,06,20,01,21,12.80
2015,06,20,01,22,12.80
2015,06,20,01,23,12.80
2015,06,20,01,24,12.80
2015,06,20,01,25,12.70
2015,06,20,01,26,12.70
2015,06,20,01,27,12.70
2015,06,20,01,28,12.70
2015,06,20,01,29,12.70
2015,06,20,01,30,12.60
2015,06,20,01,31,12.60
2015,06,20,01,32,12.60
2015,06,20,01,33,12.60
2015,06,20,01,34,12.60
2015,06,20,01,35,12.50
2015,06,20,01,36,12.50
2015,06,20,01,37,12.50
2015,06,20,01,38,12.40
2015,06,20,01,39,12.40
2015,06,20,01,40,12.40
2015,06,20,01,41,12.40
2015,06,20,01,42,12.40
2015,06,20,01,43,12.40
2015,06,20,01,44,12.30
2015,06,20,01,45,12.30
2015,06,20,01,46,12.30
2015,06,20,01,47,12.30
2015,06,20,01,48,12.30
2015,06,20,01,49,12.20
2015,06,20,01,50,12.20
2015,06,20,01,51,12.20
2015,06,20,01,52,12.20
2015,06,20,01,53,12.20
2015,06,20,01,54,12.10
2015,06,20,01,55,12.10
2015,06,20,01,56,12.10
2015,06,20,01,57,12.10
2015,06,20,01,58,12.00
2015,06,20,01,59,12.00
2015,06,20,02,00,12.00
2015,06,20,02,01,11.90
2015,06,20,02,02,11.90
2015,06,20,02,03,11.90
2015,06,20,02,04,11.90
2015,06,20,02,05,11.90
2015,06,20,02,06,11.90
2015,06,20,02,07,11.80
2015,06,20,02,08,11.80
2015,06,20,02,09,11.80
2015,06,20,02,10,11.80
2015,06,20,02,11,11.80
2015,06,20,02,12,11.80
2015,06,20,02,13,11.80
2015,06,20,02,14,11.80
2015,06,20,02,15,11.80
2015,06,20,02,16,11.70
2015,06,20,02,17,11.70
2015,06,20,02,18,11.70
2015,06,20,02,19,11.70
2015,06,20,02,20,11.70
2015,06,20,02,21,11.70
2015,06,20,02,22,11.70
2015,06,20,02,23,11.60
2015,06,20,02,24,11.60
2015,06,20,02,25,11.60
2015,06,20,02,26,11.60
2015,06,20,02,27,11.60
2015,06,20,02,28,11.60
2015,06,20,02,29,11.50
2015,06,20,02,30,11.50
2015,06,20,02,31,11.50
2015,06,20,02,32,11.50
2015,06,20,02,33,11.50
2015,06,20,02,34,11.50
2015,06,20,02,35,11.40
2015,06,20,02,36,11.40
2015,06,20,02,37,11.40
2015,06,20,02,38,11.40
2015,06,20,02,39,11.40
2015,06,20,02,40,11.40
2015,06,20,02,41,11.40
2015,06,20,02,42,11.40
2015,06,20,02,43,11.30
2015,06,20,02,44,11.30
2015,06,20,02,45,11.30
2015,06,20,02,46,11.30
2015,06,20,02,47,11.30
2015,06,20,02,48,11.30
2015,06,20,02,49,11.30
2015,06,20,02,50,11.30
2015,06,20,02,51,11.30
2015,06,20,02,52,11.30
2015,06,20,02,53,11.30
2015,06,20,02,54,11.30
2015,06,20,02,55,11.20
2015,06,20,02,56,11.20
2015,06,20,02,57,11.20
2015,06,20,02,58,11.20
2015,06,20,02,59,11.20
2015,06,20,03,00,11.20
2015,06,20,03,01,11.20
2015,06,20,03,02,11.20
2015,06,20,03,03,11.10
2015,06,20,03,04,11.10
2015,06,20,03,05,11.10
2015,06,20,03,06,11.10
2015,06,20,03,07,11.10
2015,06,20,03,08,11.10
2015,06,20,03,09,11.10
2015,06,20,03,10,11.10
2015,06,20,03,11,11.10
2015,06,20,03,12,11.00
2015,06,20,03,13,11.00
2015,06,20,03,14,11.00
2015,06,20,03,15,10.90
2015,06,20,03,16,10.90
2015,06,20,03,17,10.90
2015,06,20,03,18,10.90
2015,06,20,03,19,10.90
2015,06,20,03,20,10.80
2015,06,20,03,21,10.80
2015,06,20,03,22,10.80
2015,06,20,03,23,10.80
2015,06,20,03,24,10.80
2015,06,20,03,25,10.80
2015,06,20,03,26,10.70
2015,06,20,03,27,10.70
2015,06,20,03,28,10.70
2015,06,20,03,29,10.70
2015,06,20,03,30,10.70
2015,06,20,03,31,10.70
2015,06,20,03,32,10.70
2015,06,20,03,33,10.70
2015,06,20,03,34,10.70
2015,06,20,03,35,10.60
2015,06,20,03,36,10.60
2015,06,20,03,37,10.60
2015,06,20,03,38,10.60
2015,06,20,03,39,10.60
2015,06,20,03,40,10.60
2015,06,20,03,41,10.60
2015,06,20,03,42,10.60
2015,06,20,03,43,10.60
2015,06,20,03,44,10.60
2015,06,20,03,45,10.60
2015,06,20,03,46,10.60
2015,06,20,03,47,10.60
2015,06,20,03,48,10.60
2015,06,20,03,49,10.60
2015,06,20,03,50,10.60
2015,06,20,03,51,10.60
2015,06,20,03,52,10.60
2015,06,20,03,53,10.60
2015,06,20,03,54,10.60
2015,06,20,03,55,10.60
2015,06,20,03,56,10.60
2015,06,20,03,57,10.60
2015,06,20,03,58,10.70
2015,06,20,03,59,10.70
2015,06,20,04,00,10.60
2015,06,20,04,01,10.60
2015,06,20,04,02,10.60
2015,06,20,04,03,10.60
2015,06,20,04,04,10.60
2015,06,20,04,05,10.60
2015,06,20,04,06,10.60
2015,06,20,04,07,10.60
2015,06,20,04,08,10.50
2015,06,20,04,09,10.50
2015,06,20,04,10,10.50
2015,06,20,04,11,10.50
2015,06,20,04,12,10.50
2015,06,20,04,13,10.40
2015,06,20,04,14,10.40
2015,06,20,04,15,10.40
2015,06,20,04,16,10.40
2015,06,20,04,17,10.40
2015,06,20,04,18,10.40
2015,06,20,04,19,10.40
2015,06,20,04,20,10.40
2015,06,20,04,21,10.40
2015,06,20,04,22,10.30
2015,06,20,04,23,10.30
2015,06,20,04,24,10.30
2015,06,20,04,25,10.30
2015,06,20,04,26,10.30
2015,06,20,04,27,10.30
2015,06,20,04,28,10.30
2015,06,20,04,29,10.30
2015,06,20,04,30,10.30
2015,06,20,04,31,10.30
2015,06,20,04,32,10.20
2015,06,20,04,33,10.20
2015,06,20,04,34,10.20
2015,06,20,04,35,10.20
2015,06,20,04,36,10.20
2015,06,20,04,37,10.20
2015,06,20,04,38,10.20
2015,06,20,04,39,10.20
2015,06,20,04,40,10.20
2015,06,20,04,41,10.20
2015,06,20,04,42,10.20
2015,06,20,04,43,10.20
2015,06,20,04,44,10.20
2015,06,20,04,45,10.10
2015,06,20,04,46,10.10
2015,06,20,04,47,10.10
2015,06,20,04,48,10.10
2015,06,20,04,49,10.10
2015,06,20,04,50,10.10
2015,06,20,04,51,10.10
2015,06,20,04,52,10.10
2015,06,20,04,53,10.10
2015,06,20,04,54,10.10
2015,06,20,04,55,10.10
2015,06,20,04,56,10.10
2015,06,20,04,57,10.10
2015,06,20,04,58,10.10
2015,06,20,04,59,10.10
2015,06,20,05,00,10.10
2015,06,20,05,01,10.10
2015,06,20,05,02,10.10
2015,06,20,05,03,10.10
2015,06,20,05,04,10.10
2015,06,20,05,05,10.10
2015,06,20,05,06,10.10
2015,06,20,05,07,10.10
2015,06,20,05,08,10.10
2015,06,20,05,09,10.10
2015,06,20,05,10,10.10
2015,06,20,05,11,10.10
2015,06,20,05,12,10.10
2015,06,20,05,13,10.10
2015,06,20,05,14,10.10
2015,06,20,05,15,10.10
2015,06,20,05,16,10.20
2015,06,20,05,17,10.20
2015,06,20,05,18,10.20
2015,06,20,05,19,10.20
2015,06,20,05,20,10.20
2015,06,20,05,21,10.20
2015,06,20,05,22,10.20
2015,06,20,05,23,10.20
2015,06,20,05,24,10.20
2015,06,20,05,25,10.20
2015,06,20,05,26,10.20
2015,06,20,05,27,10.20
2015,06,20,05,28,10.20
2015,06,20,05,29,10.20
2015,06,20,05,30,10.20
2015,06,20,05,31,10.20
2015,06,20,05,32,10.20
2015,06,20,05,33,10.20
2015,06,20,05,34,10.20
2015,06,20,05,35,10.20
2015,06,20,05,36,10.20
2015,06,20,05,37,10.20
2015,06,20,05,38,10.20
2015,06,20,05,39,10.20
2015,06,20,05,40,10.10
2015,06,20,05,41,10.10
2015,06,20,05,42,10.10
2015,06,20,05,43,10.10
2015,06,20,05,44,10.10
2015,06,20,05,45,10.10
2015,06,20,05,46,10.10
2015,06,20,05,47,10.10
2015,06,20,05,48,10.10
2015,06,20,05,49,10.10
2015,06,20,05,50,10.10
2015,06,20,05,51,10.10
2015,06,20,05,52,10.10
2015,06,20,05,53,10.10
2015,06,20,05,54,10.20
2015,06,20,05,55,10.20
2015,06,20,05,56,10.20
2015,06,20,05,57,10.20
2015,06,20,05,58,10.20
2015,06,20,05,59,10.20
2015,06,20,06,00,10.20
2015,06,20,06,01,10.20
2015,06,20,06,02,10.20
2015,06,20,06,03,10.20
2015,06,20,06,04,10.20
2015,06,20,06,05,10.20
2015,06,20,06,06,10.20
2015,06,20,06,07,10.30
2015,06,20,06,08,10.30
2015,06,20,06,09,10.30
2015,06,20,06,10,10.30
2015,06,20,06,11,10.30
2015,06,20,06,12,10.30
2015,06,20,06,13,10.30
2015,06,20,06,14,10.30
2015,06,20,06,15,10.30
2015,06,20,06,16,10.30
2015,06,20,06,17,10.30
2015,06,20,06,18,10.40
2015,06,20,06,19,10.40
2015,06,20,06,20,10.40
2015,06,20,06,21,10.40
2015,06,20,06,22,10.40
2015,06,20,06,23,10.40
2015,06,20,06,24,10.50
2015,06,20,06,25,10.50
2015,06,20,06,26,10.50
2015,06,20,06,27,10.60
2015,06,20,06,28,10.60
2015,06,20,06,29,10.60
2015,06,20,06,30,10.60
2015,06,20,06,31,10.60
2015,06,20,06,32,10.70
2015,06,20,06,33,10.70
2015,06,20,06,34,10.70
2015,06,20,06,35,10.70
2015,06,20,06,36,10.80
2015,06,20,06,37,10.80
2015,06,20,06,38,10.80
2015,06,20,06,39,10.80
2015,06,20,06,40,10.90
2015,06,20,06,41,10.90
2015,06,20,06,42,10.90
2015,06,20,06,43,11.00
2015,06,20,06,44,11.00
2015,06,20,06,45,11.00
2015,06,20,06,46,11.10
2015,06,20,06,47,11.10
2015,06,20,06,48,11.10
2015,06,20,06,49,11.20
2015,06,20,06,50,11.20
2015,06,20,06,51,11.30
2015,06,20,06,52,11.30
2015,06,20,06,53,11.30
2015,06,20,06,54,11.30
2015,06,20,06,55,11.40
2015,06,20,06,56,11.40
2015,06,20,06,57,11.40
2015,06,20,06,58,11.40
2015,06,20,06,59,11.40
2015,06,20,07,00,11.50
2015,06,20,07,01,11.50
2015,06,20,07,02,11.60
2015,06,20,07,03,11.60
2015,06,20,07,04,11.70
2015,06,20,07,05,11.70
2015,06,20,07,06,11.80
2015,06,20,07,07,11.80
2015,06,20,07,08,11.80
2015,06,20,07,09,11.90
2015,06,20,07,10,11.90
2015,06,20,07,11,12.00
2015,06,20,07,12,12.10
2015,06,20,07,13,12.10
2015,06,20,07,14,12.20
2015,06,20,07,15,12.30
2015,06,20,07,16,12.30
2015,06,20,07,17,12.40
2015,06,20,07,18,12.50
2015,06,20,07,19,12.60
2015,06,20,07,20,12.60
2015,06,20,07,21,12.70
2015,06,20,07,22,12.80
2015,06,20,07,23,12.90
2015,06,20,07,24,13.00
2015,06,20,07,25,13.10
2015,06,20,07,26,13.20
2015,06,20,07,27,13.20
2015,06,20,07,28,13.30
2015,06,20,07,29,13.40
2015,06,20,07,30,13.50
2015,06,20,07,31,13.60
2015,06,20,07,32,13.70
2015,06,20,07,33,13.80
2015,06,20,07,34,13.80
2015,06,20,07,35,13.90
2015,06,20,07,36,13.90
2015,06,20,07,37,14.00
2015,06,20,07,38,14.00
2015,06,20,07,39,14.10
2015,06,20,07,40,14.10
2015,06,20,07,41,14.20
2015,06,20,07,42,14.20
2015,06,20,07,43,14.20
2015,06,20,07,44,14.20
2015,06,20,07,45,14.30
2015,06,20,07,46,14.30
2015,06,20,07,47,14.30
2015,06,20,07,48,14.40
2015,06,20,07,49,14.40
2015,06,20,07,50,14.40
2015,06,20,07,51,14.50
2015,06,20,07,52,14.50
2015,06,20,07,53,14.50
2015,06,20,07,54,14.60
2015,06,20,07,55,14.60
2015,06,20,07,56,14.60
2015,06,20,07,57,14.60
2015,06,20,07,58,14.60
2015,06,20,07,59,14.70
2015,06,20,08,00,14.70
2015,06,20,08,01,14.70
2015,06,20,08,02,14.70
2015,06,20,08,03,14.70
2015,06,20,08,04,14.70
2015,06,20,08,05,14.80
2015,06,20,08,06,14.80
2015,06,20,08,07,14.80
2015,06,20,08,08,14.80
2015,06,20,08,09,14.80
2015,06,20,08,10,14.80
2015,06,20,08,11,14.80
2015,06,20,08,12,14.80
2015,06,20,08,13,14.80
2015,06,20,08,14,14.80
2015,06,20,08,15,14.80
2015,06,20,08,16,14.80
2015,06,20,08,17,14.90
2015,06,20,08,18,14.90
2015,06,20,08,19,14.90
2015,06,20,08,20,14.90
2015,06,20,08,21,14.90
2015,06,20,08,22,14.90
2015,06,20,08,23,14.90
2015,06,20,08,24,14.90
2015,06,20,08,25,14.90
2015,06,20,08,26,14.90
2015,06,20,08,27,14.90
2015,06,20,08,28,14.90
2015,06,20,08,29,14.90
2015,06,20,08,30,14.90
2015,06,20,08,31,14.90
2015,06,20,08,32,15.00
2015,06,20,08,33,15.00
2015,06,20,08,34,15.00
2015,06,20,08,35,15.00
2015,06,20,08,36,15.00
2015,06,20,08,37,15.00
2015,06,20,08,38,15.00
2015,06,20,08,39,15.10
2015,06,20,08,40,15.10
2015,06,20,08,41,15.10
2015,06,20,08,42,15.10
2015,06,20,08,43,15.10
2015,06,20,08,44,15.20
2015,06,20,08,45,15.20
2015,06,20,08,46,15.20
2015,06,20,08,47,15.20
2015,06,20,08,48,15.20
2015,06,20,08,49,15.20
2015,06,20,08,50,15.30
2015,06,20,08,51,15.30
2015,06,20,08,52,15.30
2015,06,20,08,53,15.40
2015,06,20,08,54,15.40
2015,06,20,08,55,15.50
2015,06,20,08,56,15.50
2015,06,20,08,57,15.50
2015,06,20,08,58,15.60
2015,06,20,08,59,15.60
2015,06,20,09,00,15.70
2015,06,20,09,01,15.70
2015,06,20,09,02,15.70
2015,06,20,09,03,15.70
2015,06,20,09,04,15.80
2015,06,20,09,05,15.80
2015,06,20,09,06,15.80
2015,06,20,09,07,15.80
2015,06,20,09,08,15.80
2015,06,20,09,09,15.80
2015,06,20,09,10,15.80
2015,06,20,09,11,15.80
2015,06,20,09,12,15.80
2015,06,20,09,13,15.80
2015,06,20,09,14,15.80
2015,06,20,09,15,15.80
2015,06,20,09,16,15.80
2015,06,20,09,17,15.80
2015,06,20,09,18,15.80
2015,06,20,09,19,15.90
2015,06,20,09,20,15.90
2015,06,20,09,21,15.90
2015,06,20,09,22,15.90
2015,06,20,09,23,15.90
2015,06,20,09,24,15.80
2015,06,20,09,25,15.80
2015,06,20,09,26,15.80
2015,06,20,09,27,15.80
2015,06,20,09,28,15.80
2015,06,20,09,29,15.80
2015,06,20,09,30,15.80
2015,06,20,09,31,15.90
2015,06,20,09,32,15.90
2015,06,20,09,33,15.90
2015,06,20,09,34,16.00
2015,06,20,09,35,16.00
2015,06,20,09,36,16.00
2015,06,20,09,37,16.00
2015,06,20,09,38,16.10
2015,06,20,09,39,16.20
2015,06,20,09,40,16.20
2015,06,20,09,41,16.20
2015,06,20,09,42,16.20
2015,06,20,09,43,16.20
2015,06,20,09,44,16.10
2015,06,20,09,45,16.10
2015,06,20,09,46,16.10
2015,06,20,09,47,16.10
2015,06,20,09,48,16.10
2015,06,20,09,49,16.10
2015,06,20,09,50,16.10
2015,06,20,09,51,16.10
2015,06,20,09,52,16.10
2015,06,20,09,53,16.10
2015,06,20,09,54,16.10
2015,06,20,09,55,16.10
2015,06,20,09,56,16.10
2015,06,20,09,57,16.10
2015,06,20,09,58,16.10
2015,06,20,09,59,16.10
2015,06,20,10,00,16.10
2015,06,20,10,01,16.10
2015,06,20,10,02,16.10
2015,06,20,10,03,16.10
2015,06,20,10,04,16.10
2015,06,20,10,05,16.10
2015,06,20,10,06,16.20
2015,06,20,10,07,16.20
2015,06,20,10,08,16.30
2015,06,20,10,09,16.30
2015,06,20,10,10,16.40
2015,06,20,10,11,16.40
2015,06,20,10,12,16.40
2015,06,20,10,13,16.40
2015,06,20,10,14,16.40
2015,06,20,10,15,16.30
2015,06,20,10,16,16.30
2015,06,20,10,17,16.30
2015,06,20,10,18,16.40
2015,06,20,10,19,16.50
2015,06,20,10,20,16.50
2015,06,20,10,21,16.60
2015,06,20,10,22,16.60
2015,06,20,10,23,16.60
2015,06,20,10,24,16.50
2015,06,20,10,25,16.50
2015,06,20,10,26,16.60
2015,06,20,10,27,16.60
2015,06,20,10,28,16.60
2015,06,20,10,29,16.60
2015,06,20,10,30,16.60
2015,06,20,10,31,16.60
2015,06,20,10,32,16.70
2015,06,20,10,33,16.70
2015,06,20,10,34,16.70
2015,06,20,10,35,16.70
2015,06,20,10,36,16.70
2015,06,20,10,37,16.70
2015,06,20,10,38,16.70
2015,06,20,10,39,16.70
2015,06,20,10,40,16.70
2015,06,20,10,41,16.70
2015,06,20,10,42,16.70
2015,06,20,10,43,16.70
2015,06,20,10,44,16.70
2015,06,20,10,45,16.70
2015,06,20,10,46,16.70
2015,06,20,10,47,16.70
2015,06,20,10,48,16.80
2015,06,20,10,49,16.90
2015,06,20,10,50,16.90
2015,06,20,10,51,16.90
2015,06,20,10,52,16.90
2015,06,20,10,53,16.90
2015,06,20,10,54,16.90
2015,06,20,10,55,16.90
2015,06,20,10,56,16.90
2015,06,20,10,57,16.80
2015,06,20,10,58,16.80
2015,06,20,10,59,16.70
2015,06,20,11,00,16.70
2015,06,20,11,01,16.80
2015,06,20,11,02,16.80
2015,06,20,11,03,16.80
2015,06,20,11,04,16.80
2015,06,20,11,05,16.80
2015,06,20,11,06,16.80
2015,06,20,11,07,16.80
2015,06,20,11,08,16.80
2015,06,20,11,09,16.80
2015,06,20,11,10,16.80
2015,06,20,11,11,16.80
2015,06,20,11,12,16.90
2015,06,20,11,13,16.90
2015,06,20,11,14,16.90
2015,06,20,11,15,16.90
2015,06,20,11,16,16.90
2015,06,20,11,17,16.80
2015,06,20,11,18,16.90
2015,06,20,11,19,17.00
2015,06,20,11,20,17.00
2015,06,20,11,21,17.00
2015,06,20,11,22,16.90
2015,06,20,11,23,16.80
2015,06,20,11,24,16.80
2015,06,20,11,25,16.80
2015,06,20,11,26,16.80
2015,06,20,11,27,16.70
2015,06,20,11,28,16.70
2015,06,20,11,29,16.70
2015,06,20,11,30,16.70
2015,06,20,11,31,16.80
2015,06,20,11,32,16.80
2015,06,20,11,33,16.90
2015,06,20,11,34,16.90
2015,06,20,11,35,17.00
2015,06,20,11,36,17.10
2015,06,20,11,37,17.10
2015,06,20,11,38,17.10
2015,06,20,11,39,17.00
2015,06,20,11,40,17.10
2015,06,20,11,41,17.10
2015,06,20,11,42,17.00
2015,06,20,11,43,17.00
2015,06,20,11,44,16.90
2015,06,20,11,45,16.90
2015,06,20,11,46,17.00
2015,06,20,11,47,17.10
2015,06,20,11,48,17.10
2015,06,20,11,49,17.20
2015,06,20,11,50,17.20
2015,06,20,11,51,17.20
2015,06,20,11,52,17.30
2015,06,20,11,53,17.30
2015,06,20,11,54,17.30
2015,06,20,11,55,17.40
2015,06,20,11,56,17.50
2015,06,20,11,57,17.60
2015,06,20,11,58,17.70
2015,06,20,11,59,17.80
2015,06,20,12,00,17.90
2015,06,20,12,01,18.00
2015,06,20,12,02,18.00
2015,06,20,12,03,18.10
2015,06,20,12,04,18.20
2015,06,20,12,05,18.20
2015,06,20,12,06,18.20
2015,06,20,12,07,18.20
2015,06,20,12,08,18.30
2015,06,20,12,09,18.30
2015,06,20,12,10,18.40
2015,06,20,12,11,18.40
2015,06,20,12,12,18.50
2015,06,20,12,13,18.60
2015,06,20,12,14,18.70
2015,06,20,12,15,18.70
2015,06,20,12,16,18.70
2015,06,20,12,17,18.70
2015,06,20,12,18,18.80
2015,06,20,12,19,18.80
2015,06,20,12,20,18.80
2015,06,20,12,21,18.70
2015,06,20,12,22,18.50
2015,06,20,12,23,18.40
2015,06,20,12,24,18.20
2015,06,20,12,25,18.10
2015,06,20,12,26,18.00
2015,06,20,12,27,18.00
2015,06,20,12,28,17.90
2015,06,20,12,29,17.90
2015,06,20,12,30,17.80
2015,06,20,12,31,17.80
2015,06,20,12,32,17.80
2015,06,20,12,33,17.70
2015,06,20,12,34,17.70
2015,06,20,12,35,17.70
2015,06,20,12,36,17.60
2015,06,20,12,37,17.60
2015,06,20,12,38,17.60
2015,06,20,12,39,17.60
2015,06,20,12,40,17.60
2015,06,20,12,41,17.60
2015,06,20,12,42,17.70
2015,06,20,12,43,17.70
2015,06,20,12,44,17.80
2015,06,20,12,45,17.90
2015,06,20,12,46,18.00
2015,06,20,12,47,18.10
2015,06,20,12,48,18.10
2015,06,20,12,49,18.10
2015,06,20,12,50,18.10
2015,06,20,12,51,18.00
2015,06,20,12,52,17.90
2015,06,20,12,53,17.90
2015,06,20,12,54,17.80
2015,06,20,12,55,17.70
2015,06,20,12,56,17.70
2015,06,20,12,57,17.70
2015,06,20,12,58,17.70
2015,06,20,12,59,17.70
2015,06,20,13,00,17.70
2015,06,20,13,01,17.70
2015,06,20,13,02,17.70
2015,06,20,13,03,17.70
2015,06,20,13,04,17.70
2015,06,20,13,05,17.70
2015,06,20,13,06,17.70
2015,06,20,13,07,17.60
2015,06,20,13,08,17.60
2015,06,20,13,09,17.70
2015,06,20,13,10,17.70
2015,06,20,13,11,17.70
2015,06,20,13,12,17.70
2015,06,20,13,13,17.70
2015,06,20,13,14,17.80
2015,06,20,13,15,17.80
2015,06,20,13,16,17.90
2015,06,20,13,17,18.00
2015,06,20,13,18,18.10
2015,06,20,13,19,18.10
2015,06,20,13,20,18.10
2015,06,20,13,21,18.00
2015,06,20,13,22,18.00
2015,06,20,13,23,17.90
2015,06,20,13,24,17.90
2015,06,20,13,25,17.80
2015,06,20,13,26,17.70
2015,06,20,13,27,17.70
2015,06,20,13,28,17.70
2015,06,20,13,29,17.70
2015,06,20,13,30,17.70
2015,06,20,13,31,17.60
2015,06,20,13,32,17.60
2015,06,20,13,33,17.60
2015,06,20,13,34,17.60
2015,06,20,13,35,17.60
2015,06,20,13,36,17.60
2015,06,20,13,37,17.60
2015,06,20,13,38,17.60
2015,06,20,13,39,17.60
2015,06,20,13,40,17.50
2015,06,20,13,41,17.50
2015,06,20,13,42,17.40
2015,06,20,13,43,17.40
2015,06,20,13,44,17.40
2015,06,20,13,45,17.40
2015,06,20,13,46,17.30
2015,06,20,13,47,17.30
2015,06,20,13,48,17.30
2015,06,20,13,49,17.30
2015,06,20,13,50,17.40
2015,06,20,13,51,17.60
2015,06,20,13,52,17.80
2015,06,20,13,53,18.00
2015,06,20,13,54,18.20
2015,06,20,13,55,18.30
2015,06,20,13,56,18.40
2015,06,20,13,57,18.50
2015,06,20,13,58,18.60
2015,06,20,13,59,18.60
2015,06,20,14,00,18.70
2015,06,20,14,01,18.80
2015,06,20,14,02,18.80
2015,06,20,14,03,18.80
2015,06,20,14,04,18.80
2015,06,20,14,05,18.80
2015,06,20,14,06,18.80
2015,06,20,14,07,18.80
2015,06,20,14,08,18.80
2015,06,20,14,09,18.60
2015,06,20,14,10,18.50
2015,06,20,14,11,18.50
2015,06,20,14,12,18.60
2015,06,20,14,13,18.70
2015,06,20,14,14,18.80
2015,06,20,14,15,18.80
2015,06,20,14,16,18.80
2015,06,20,14,17,18.80
2015,06,20,14,18,18.80
2015,06,20,14,19,18.90
2015,06,20,14,20,18.90
2015,06,20,14,21,18.90
2015,06,20,14,22,18.80
2015,06,20,14,23,18.80
2015,06,20,14,24,18.90
2015,06,20,14,25,18.90
2015,06,20,14,26,18.90
2015,06,20,14,27,18.90
2015,06,20,14,28,18.90
2015,06,20,14,29,18.90
2015,06,20,14,30,18.70
2015,06,20,14,31,18.60
2015,06,20,14,32,18.60
2015,06,20,14,33,18.70
2015,06,20,14,34,18.80
2015,06,20,14,35,18.90
2015,06,20,14,36,19.00
2015,06,20,14,37,19.20
2015,06,20,14,38,19.30
2015,06,20,14,39,19.40
2015,06,20,14,40,19.40
2015,06,20,14,41,19.30
2015,06,20,14,42,19.30
2015,06,20,14,43,19.30
2015,06,20,14,44,19.40
2015,06,20,14,45,19.60
2015,06,20,14,46,19.60
2015,06,20,14,47,19.70
2015,06,20,14,48,19.80
2015,06,20,14,49,19.80
2015,06,20,14,50,19.80
2015,06,20,14,51,19.80
2015,06,20,14,52,19.80
2015,06,20,14,53,19.80
2015,06,20,14,54,19.70
2015,06,20,14,55,19.60
2015,06,20,14,56,19.60
2015,06,20,14,57,19.40
2015,06,20,14,58,19.40
2015,06,20,14,59,19.30
2015,06,20,15,00,19.40
2015,06,20,15,01,19.50
2015,06,20,15,02,19.60
2015,06,20,15,03,19.70
2015,06,20,15,04,19.90
2015,06,20,15,05,20.10
2015,06,20,15,06,20.20
2015,06,20,15,07,20.20
2015,06,20,15,08,20.10
2015,06,20,15,09,20.00
2015,06,20,15,10,19.90
2015,06,20,15,11,19.70
2015,06,20,15,12,19.60
2015,06,20,15,13,19.50
2015,06,20,15,14,19.40
2015,06,20,15,15,19.40
2015,06,20,15,16,19.40
2015,06,20,15,17,19.40
2015,06,20,15,18,19.40
2015,06,20,15,19,19.30
2015,06,20,15,20,19.40
2015,06,20,15,21,19.50
2015,06,20,15,22,19.50
2015,06,20,15,23,19.60
2015,06,20,15,24,19.60
2015,06,20,15,25,19.70
2015,06,20,15,26,19.70
2015,06,20,15,27,19.80
2015,06,20,15,28,19.80
2015,06,20,15,29,19.70
2015,06,20,15,30,19.70
2015,06,20,15,31,19.70
2015,06,20,15,32,19.80
2015,06,20,15,33,19.90
2015,06,20,15,34,20.00
2015,06,20,15,35,20.00
2015,06,20,15,36,20.10
2015,06,20,15,37,20.10
2015,06,20,15,38,20.30
2015,06,20,15,39,20.40
2015,06,20,15,40,20.40
2015,06,20,15,41,20.50
2015,06,20,15,42,20.50
2015,06,20,15,43,20.50
2015,06,20,15,44,20.50
2015,06,20,15,45,20.50
2015,06,20,15,46,20.60
2015,06,20,15,47,20.80
2015,06,20,15,48,20.90
2015,06,20,15,49,20.90
2015,06,20,15,50,20.90
2015,06,20,15,51,20.90
2015,06,20,15,52,20.90
2015,06,20,15,53,20.90
2015,06,20,15,54,20.80
2015,06,20,15,55,20.80
2015,06,20,15,56,20.70
2015,06,20,15,57,20.70
2015,06,20,15,58,20.70
2015,06,20,15,59,20.60
2015,06,20,16,00,20.60
2015,06,20,16,01,20.60
2015,06,20,16,02,20.60
2015,06,20,16,03,20.60
2015,06,20,16,04,20.60
2015,06,20,16,05,20.60
2015,06,20,16,06,20.60
2015,06,20,16,07,20.60
2015,06,20,16,08,20.50
2015,06,20,16,09,20.50
2015,06,20,16,10,20.50
2015,06,20,16,11,20.40
2015,06,20,16,12,20.40
2015,06,20,16,13,20.40
2015,06,20,16,14,20.40
2015,06,20,16,15,20.40
2015,06,20,16,16,20.40
2015,06,20,16,17,20.50
2015,06,20,16,18,20.60
2015,06,20,16,19,20.60
2015,06,20,16,20,20.70
2015,06,20,16,21,20.70
2015,06,20,16,22,20.70
2015,06,20,16,23,20.70
2015,06,20,16,24,20.60
2015,06,20,16,25,20.60
2015,06,20,16,26,20.60
2015,06,20,16,27,20.60
2015,06,20,16,28,20.60
2015,06,20,16,29,20.60
2015,06,20,16,30,20.50
2015,06,20,16,31,20.50
2015,06,20,16,32,20.40
2015,06,20,16,33,20.30
2015,06,20,16,34,20.30
2015,06,20,16,35,20.30
2015,06,20,16,36,20.30
2015,06,20,16,37,20.40
2015,06,20,16,38,20.40
2015,06,20,16,39,20.40
2015,06,20,16,40,20.30
2015,06,20,16,41,20.30
2015,06,20,16,42,20.30
2015,06,20,16,43,20.30
2015,06,20,16,44,20.20
2015,06,20,16,45,20.10
2015,06,20,16,46,20.10
2015,06,20,16,47,20.20
2015,06,20,16,48,20.20
2015,06,20,16,49,20.30
2015,06,20,16,50,20.30
2015,06,20,16,51,20.30
2015,06,20,16,52,20.30
2015,06,20,16,53,20.30
2015,06,20,16,54,20.30
2015,06,20,16,55,20.30
2015,06,20,16,56,20.30
2015,06,20,16,57,20.30
2015,06,20,16,58,20.30
2015,06,20,16,59,20.20
2015,06,20,17,00,20.20
2015,06,20,17,01,20.20
2015,06,20,17,02,20.20
2015,06,20,17,03,20.30
2015,06,20,17,04,20.30
2015,06,20,17,05,20.30
2015,06,20,17,06,20.30
2015,06,20,17,07,20.40
2015,06,20,17,08,20.50
2015,06,20,17,09,20.60
2015,06,20,17,10,20.60
2015,06,20,17,11,20.60
2015,06,20,17,12,20.60
2015,06,20,17,13,20.60
2015,06,20,17,14,20.50
2015,06,20,17,15,20.50
2015,06,20,17,16,20.40
2015,06,20,17,17,20.40
2015,06,20,17,18,20.40
2015,06,20,17,19,20.40